• în România
  • Lista ţărilor
  • Pe 7 zile
  • Temperatura apei
  • Hartă satelitară
  • Meteo pe hartă
  • Widget-uri
  • user-avatar
    Intrare

    Meteo pe oră la Folkern

    Astăzi, 20 Octombrie, Sâmbătă

    Timp Temperatura Precipitaţii Vânt Presiune Umiditate
    00:00 +9°C° 0 mm 10 m/s 764 mmHg 80%
    01:00 +9°C° 0.3 mm 10 m/s 764 mmHg 84%
    02:00 +11°C° 0.3 mm 11 m/s 763 mmHg 88%
    03:00 +11°C° 0.3 mm 11 m/s 763 mmHg 91%
    04:00 +11°C° 0.2 mm 11 m/s 763 mmHg 92%
    05:00 +12°C° 0.2 mm 12 m/s 763 mmHg 93%
    06:00 +12°C° 0.2 mm 12 m/s 762 mmHg 93%
    07:00 +12°C° 0.4 mm 12 m/s 762 mmHg 94%
    08:00 +12°C° 0.4 mm 12 m/s 762 mmHg 94%
    09:00 +12°C° 0.4 mm 12 m/s 762 mmHg 95%
    10:00 +12°C° 0.1 mm 12 m/s 763 mmHg 95%
    11:00 +13°C° 0.1 mm 11 m/s 763 mmHg 95%
    12:00 +13°C° 0.1 mm 11 m/s 763 mmHg 96%
    13:00 +13°C° 0.1 mm 11 m/s 763 mmHg 96%
    14:00 +13°C° 0.1 mm 11 m/s 763 mmHg 96%
    15:00 +13°C° 0.1 mm 11 m/s 763 mmHg 96%
    16:00 +13°C° 0.2 mm 11 m/s 763 mmHg 96%
    17:00 +13°C° 0.2 mm 11 m/s 763 mmHg 95%
    18:00 +13°C° 0.2 mm 11 m/s 763 mmHg 95%
    19:00 +13°C° 0.3 mm 10 m/s 763 mmHg 95%
    20:00 +13°C° 0.3 mm 10 m/s 763 mmHg 96%
    21:00 +12°C° 0.3 mm 9 m/s 763 mmHg 96%
    22:00 +12°C° 0.4 mm 9 m/s 763 mmHg 95%
    23:00 +12°C° 0.4 mm 9 m/s 763 mmHg 95%

    Mâine, 21 Octombrie, Duminică

    Timp Temperatura Precipitaţii Vânt Presiune Umiditate
    00:00 +12°C° 0.4 mm 8 m/s 763 mmHg 95%
    01:00 +11°C° 0.8 mm 8 m/s 762 mmHg 92%
    02:00 +10°C° 0.8 mm 8 m/s 762 mmHg 90%
    03:00 +9°C° 0.8 mm 7 m/s 762 mmHg 87%
    04:00 +9°C° 1.1 mm 7 m/s 762 mmHg 87%
    05:00 +9°C° 1.1 mm 8 m/s 762 mmHg 87%
    06:00 +7°C° 1.1 mm 8 m/s 762 mmHg 86%
    07:00 +7°C° 0.8 mm 9 m/s 763 mmHg 86%
    08:00 +8°C° 0.8 mm 10 m/s 763 mmHg 85%
    09:00 +8°C° 0.8 mm 11 m/s 764 mmHg 85%
    10:00 +8°C° 0.3 mm 11 m/s 764 mmHg 80%
    11:00 +8°C° 0.3 mm 12 m/s 765 mmHg 75%
    12:00 +7°C° 0.3 mm 12 m/s 766 mmHg 70%
    13:00 +7°C° 0.1 mm 13 m/s 766 mmHg 68%
    14:00 +7°C° 0.1 mm 13 m/s 767 mmHg 65%
    15:00 +6°C° 0.1 mm 14 m/s 767 mmHg 63%
    16:00 +6°C° 0.1 mm 14 m/s 768 mmHg 62%
    17:00 +6°C° 0.1 mm 14 m/s 768 mmHg 60%
    18:00 +5°C° 0.1 mm 13 m/s 769 mmHg 59%
    19:00 +5°C° 0.2 mm 14 m/s 770 mmHg 59%
    20:00 +5°C° 0.2 mm 14 m/s 770 mmHg 60%
    21:00 +5°C° 0.2 mm 14 m/s 771 mmHg 61%
    22:00 +5°C° 0.1 mm 14 m/s 771 mmHg 62%
    23:00 +6°C° 0.1 mm 14 m/s 771 mmHg 63%

    Poimâine, 22 Octombrie, Luni

    Timp Temperatura Precipitaţii Vânt Presiune Umiditate
    00:00 +7°C° 0.1 mm 13 m/s 772 mmHg 63%
    01:00 +7°C° 0.2 mm 13 m/s 772 mmHg 64%
    02:00 +7°C° 0.2 mm 13 m/s 772 mmHg 65%
    03:00 +8°C° 0.2 mm 13 m/s 772 mmHg 66%
    04:00 +8°C° 0.1 mm 13 m/s 773 mmHg 67%
    05:00 +8°C° 0.1 mm 13 m/s 773 mmHg 68%
    06:00 +8°C° 0.1 mm 12 m/s 773 mmHg 69%
    07:00 +8°C° 0 mm 13 m/s 773 mmHg 71%
    08:00 +8°C° 0 mm 13 m/s 773 mmHg 73%
    09:00 +8°C° 0 mm 13 m/s 773 mmHg 75%
    10:00 +8°C° 0.2 mm 14 m/s 773 mmHg 76%
    11:00 +8°C° 0.2 mm 15 m/s 772 mmHg 77%
    12:00 +8°C° 0.2 mm 15 m/s 772 mmHg 79%
    13:00 +9°C° 0.1 mm 15 m/s 772 mmHg 80%
    14:00 +9°C° 0.1 mm 15 m/s 772 mmHg 81%
    15:00 +9°C° 0.1 mm 15 m/s 771 mmHg 82%
    16:00 +9°C° 0.1 mm 15 m/s 771 mmHg 83%
    17:00 +9°C° 0.1 mm 15 m/s 771 mmHg 83%
    18:00 +9°C° 0.1 mm 15 m/s 771 mmHg 84%
    19:00 +9°C° 0.1 mm 15 m/s 771 mmHg 84%
    20:00 +9°C° 0.1 mm 15 m/s 771 mmHg 85%
    21:00 +9°C° 0.1 mm 15 m/s 771 mmHg 86%
    22:00 +9°C° 0.1 mm 14 m/s 771 mmHg 86%
    23:00 +10°C° 0.1 mm 14 m/s 771 mmHg 87%

    23 Octombrie, Marţi

    Timp Temperatura Precipitaţii Vânt Presiune Umiditate
    00:00 +10°C° 0.1 mm 13 m/s 770 mmHg 87%
    01:00 +10°C° 0 mm 14 m/s 770 mmHg 87%
    02:00 +10°C° 0 mm 14 m/s 770 mmHg 87%
    03:00 +10°C° 0 mm 15 m/s 769 mmHg 87%
    04:00 +10°C° 0 mm 15 m/s 769 mmHg 87%
    05:00 +10°C° 0 mm 15 m/s 769 mmHg 87%
    06:00 +10°C° 0 mm 15 m/s 769 mmHg 87%
    07:00 +10°C° 0.1 mm 15 m/s 769 mmHg 88%
    08:00 +10°C° 0.1 mm 15 m/s 768 mmHg 90%
    09:00 +10°C° 0.1 mm 15 m/s 768 mmHg 91%
    10:00 +10°C° 0.1 mm 14 m/s 769 mmHg 91%
    11:00 +10°C° 0.1 mm 14 m/s 769 mmHg 91%
    12:00 +10°C° 0.1 mm 14 m/s 769 mmHg 91%
    13:00 +10°C° 0.2 mm 14 m/s 769 mmHg 91%
    14:00 +10°C° 0.2 mm 13 m/s 769 mmHg 91%
    15:00 +10°C° 0.2 mm 13 m/s 769 mmHg 91%
    16:00 +10°C° 0.1 mm 12 m/s 769 mmHg 92%
    17:00 +10°C° 0.1 mm 12 m/s 769 mmHg 92%
    18:00 +12°C° 0.1 mm 11 m/s 769 mmHg 92%
    19:00 +12°C° 0.1 mm 11 m/s 769 mmHg 93%
    20:00 +12°C° 0.1 mm 11 m/s 770 mmHg 93%
    21:00 +12°C° 0.1 mm 10 m/s 770 mmHg 93%
    22:00 +11°C° 0 mm 10 m/s 770 mmHg 93%
    23:00 +11°C° 0 mm 10 m/s 770 mmHg 93%

    24 Octombrie, Miercuri

    Timp Temperatura Precipitaţii Vânt Presiune Umiditate
    00:00 +11°C° 0 mm 10 m/s 770 mmHg 94%
    01:00 +11°C° 0 mm 10 m/s 770 mmHg 93%
    02:00 +11°C° 0 mm 9 m/s 770 mmHg 93%
    03:00 +11°C° 0 mm 9 m/s 771 mmHg 93%
    04:00 +11°C° 0 mm 9 m/s 770 mmHg 92%
    05:00 +11°C° 0 mm 9 m/s 770 mmHg 92%
    06:00 +11°C° 0 mm 9 m/s 770 mmHg 91%
    07:00 +10°C° 0 mm 9 m/s 770 mmHg 89%
    08:00 +10°C° 0 mm 9 m/s 770 mmHg 87%
    09:00 +8°C° 0 mm 9 m/s 770 mmHg 84%
    10:00 +8°C° 0 mm 9 m/s 770 mmHg 85%
    11:00 +8°C° 0 mm 9 m/s 770 mmHg 85%
    12:00 +8°C° 0 mm 9 m/s 770 mmHg 86%
    13:00 +8°C° 0 mm 9 m/s 770 mmHg 86%
    14:00 +8°C° 0 mm 9 m/s 770 mmHg 85%
    15:00 +8°C° 0 mm 9 m/s 769 mmHg 85%
    16:00 +8°C° 0.1 mm 9 m/s 769 mmHg 85%
    17:00 +8°C° 0.1 mm 10 m/s 769 mmHg 84%
    18:00 +8°C° 0.1 mm 10 m/s 769 mmHg 84%
    19:00 +8°C° 0.1 mm 10 m/s 768 mmHg 84%
    20:00 +8°C° 0.1 mm 9 m/s 768 mmHg 83%
    21:00 +8°C° 0.1 mm 9 m/s 768 mmHg 83%
    22:00 +10°C° 0 mm 9 m/s 768 mmHg 84%
    23:00 +9°C° 0 mm 10 m/s 767 mmHg 85%

    25 Octombrie, Joi

    Timp Temperatura Precipitaţii Vânt Presiune Umiditate
    00:00 +9°C° 0 mm 10 m/s 767 mmHg 87%
    01:00 +9°C° 0 mm 10 m/s 766 mmHg 88%
    02:00 +9°C° 0 mm 10 m/s 766 mmHg 89%
    03:00 +9°C° 0 mm 10 m/s 765 mmHg 90%
    04:00 +9°C° 0.1 mm 10 m/s 765 mmHg 90%
    05:00 +9°C° 0.1 mm 10 m/s 765 mmHg 90%
    06:00 +9°C° 0.1 mm 10 m/s 764 mmHg 90%
    07:00 +9°C° 0.1 mm 10 m/s 764 mmHg 90%
    08:00 +9°C° 0.1 mm 10 m/s 764 mmHg 90%
    09:00 +9°C° 0.1 mm 10 m/s 764 mmHg 90%
    10:00 +9°C° 0.2 mm 10 m/s 764 mmHg 86%
    11:00 +8°C° 0.2 mm 10 m/s 764 mmHg 81%
    12:00 +7°C° 0.2 mm 10 m/s 764 mmHg 77%
    13:00 +7°C° 0 mm 10 m/s 764 mmHg 74%
    14:00 +7°C° 0 mm 10 m/s 765 mmHg 71%
    15:00 +7°C° 0 mm 10 m/s 765 mmHg 69%
    16:00 +7°C° 0.1 mm 10 m/s 765 mmHg 68%
    17:00 +7°C° 0.1 mm 11 m/s 765 mmHg 67%
    18:00 +7°C° 0.1 mm 11 m/s 765 mmHg 67%
    19:00 +7°C° 0.1 mm 11 m/s 766 mmHg 67%
    20:00 +7°C° 0.1 mm 11 m/s 766 mmHg 66%
    21:00 +7°C° 0.1 mm 11 m/s 766 mmHg 66%
    22:00 +6°C° 0.1 mm 11 m/s 766 mmHg 67%
    23:00 +5°C° 0.1 mm 12 m/s 766 mmHg 67%
    Arată mai mult